Weather History for Valdosta Regional, GA

Change the Weather History Date:

Monday, February 3, 2014

  Actual Average Record
Temperature  
Mean Temperature 72 °F 52 °F  
Max Temperature 81 °F 64 °F 81 °F (2014)
Min Temperature 63 °F 40 °F 63 °F (2014)
Degree Days  
Heating Degree Days 0 13  
Month to date heating degree days 7 41  
Since 1 July heating degree days 863 1110  
Moisture  
Dew Point 64 °F    
Average Humidity 75    
Maximum Humidity 89    
Minimum Humidity 58    
Precipitation  
Precipitation 0.00 in - 0.00 in (2014)
Sea Level Pressure  
Sea Level Pressure 30.07 in    
Wind  
Wind Speed 6 mph (South)    
Max Wind Speed 14 mph    
Max Gust Speed 22 mph    
Visibility 7 miles    
Events      
T = Trace of Precipitation, MM = Missing Value Source: NWS Daily Summary

Daily Weather History Graph

Daily Weather History Graph

Search for Another Location

Airport:

Trip Planner

Search our weather history database for the weather conditions in past years. The results will help you decide how hot, cold, wet, or windy it might be!

Date:

Astronomy

Feb. 03, 2014 Rise Set
Actual Time 7:23 AM EST 6:10 PM EST
Civil Twilight 6:58 AM EST 6:36 PM EST
Nautical Twilight 6:29 AM EST 7:04 PM EST
Astronomical Twilight 6:01 AM EST 7:33 PM EST
Moon 9:45 AM EST (2/3) 10:37 PM EST (2/3)
Length of Visible Light 11h 37m
Length of Day
10h 47m
Waxing Crescent, 19% of the Moon is Illuminated
Feb 3
Waxing Crescent
Feb 6
First Quarter
Feb 14
Full
Feb 22
Last Quarter
Mar 1
New

Hourly Weather History & Observations

Time (EST) Temp. Windchill Dew Point Humidity Pressure Visibility Wind Dir Wind Speed Gust Speed Precip Events Conditions
12:00 AM - - - N/A% 30.07 in 3.0 mi South 10.4 mph - N/A   Overcast
12:53 AM - - - N/A% 30.06 in 3.0 mi South 10.4 mph - N/A   Overcast
1:53 AM 1.0 °F -16.6 °F - N/A% 30.09 in 4.0 mi South 12.7 mph 18.4 mph N/A   Haze
2:42 AM - - - N/A% 30.04 in 2.0 mi South 6.9 mph - N/A   Overcast
2:53 AM - - - N/A% 30.04 in 2.0 mi South 6.9 mph - N/A   Overcast
3:04 AM - - - N/A% 30.04 in 4.0 mi South 8.1 mph - N/A   Haze
3:53 AM - - - N/A% 30.04 in 4.0 mi South 5.8 mph - N/A   Haze
4:46 AM - - - N/A% 30.03 in 2.5 mi South 9.2 mph - N/A   Overcast
4:53 AM - - - N/A% 30.03 in 2.5 mi South 10.4 mph - N/A   Overcast
5:05 AM - - - N/A% 30.03 in 3.0 mi South 10.4 mph - N/A   Overcast
5:23 AM - - - N/A% 30.04 in 2.5 mi SSW 5.8 mph - N/A   Overcast
5:30 AM - - - N/A% 30.04 in 3.0 mi SSW 4.6 mph - N/A   Overcast
5:53 AM 1.0 °F -12.9 °F - N/A% 30.04 in 3.0 mi South 8.1 mph - N/A   Overcast
6:53 AM 65.3 °F - 61.3 °F 87% 30.05 in 7.0 mi Calm Calm - N/A   Overcast
7:53 AM 66.7 °F - 63.3 °F 89% 30.07 in 8.0 mi South 4.6 mph - N/A   Overcast
8:53 AM 67.3 °F - 63.9 °F 89% 30.07 in 6.0 mi SSW 6.9 mph - N/A   Overcast
9:05 AM 68.0 °F - 64.4 °F 88% 30.07 in 8.0 mi South 9.2 mph - N/A   Overcast
9:53 AM 67.3 °F - 63.9 °F 89% 30.10 in 10.0 mi Variable 6.9 mph - N/A   Mostly Cloudy
10:08 AM 69.8 °F - 62.6 °F 78% 30.10 in 10.0 mi SSW 8.1 mph - N/A   Mostly Cloudy
10:53 AM 73.0 °F - 64.0 °F 73% 30.10 in 10.0 mi South 10.4 mph - N/A   Mostly Cloudy
11:53 AM 73.9 °F - 64.9 °F 73% 30.10 in 10.0 mi Variable 6.9 mph - N/A   Overcast
12:41 PM 78.8 °F - 64.4 °F 61% 30.07 in 10.0 mi Variable 4.6 mph - N/A   Mostly Cloudy
12:53 PM 77.0 °F - 64.9 °F 66% 30.07 in 10.0 mi SSW 10.4 mph 18.4 mph N/A   Mostly Cloudy
1:07 PM 78.8 °F - 66.2 °F 65% 30.06 in 10.0 mi Variable 6.9 mph - N/A   Overcast
1:36 PM 78.8 °F - 64.4 °F 61% 30.05 in 10.0 mi Variable 5.8 mph - N/A   Overcast
1:53 PM 79.0 °F - 64.0 °F 60% 30.07 in 10.0 mi SW 6.9 mph - N/A   Overcast
2:53 PM 79.0 °F - 62.1 °F 56% 30.04 in 10.0 mi SSW 9.2 mph 16.1 mph N/A   Overcast
3:53 PM 78.1 °F - 62.1 °F 58% 30.04 in 10.0 mi SSW 6.9 mph 16.1 mph N/A   Overcast
4:53 PM 77.0 °F - 64.0 °F 64% 30.04 in 10.0 mi Variable 3.5 mph - N/A   Overcast
5:53 PM 75.9 °F - 63.0 °F 64% 30.08 in 10.0 mi Calm Calm - N/A   Overcast
6:53 PM 72.0 °F - 64.0 °F 76% 30.08 in 10.0 mi Calm Calm - N/A   Overcast
7:53 PM 72.0 °F - 64.0 °F 76% 30.09 in 10.0 mi South 4.6 mph - N/A   Overcast
8:53 PM 71.1 °F - 64.0 °F 78% 30.10 in 10.0 mi SSW 3.5 mph - N/A   Overcast
9:53 PM 70.0 °F - 64.0 °F 81% 30.11 in 10.0 mi Calm Calm - N/A   Overcast
10:15 PM 69.8 °F - 64.4 °F 83% 30.09 in 10.0 mi Calm Calm - N/A   Overcast
10:24 PM 69.8 °F - 64.4 °F 83% 30.10 in 10.0 mi Calm Calm - N/A   Overcast
10:53 PM 70.0 °F - 64.0 °F 81% 30.12 in 10.0 mi Calm Calm - N/A   Overcast
11:53 PM 68.0 °F - 64.0 °F 87% 30.12 in 9.0 mi Calm Calm - N/A   Overcast